Weather History for Statesville, NC

Change the Weather History Date:

Friday, November 2, 2012

  Actual Average (KHKY) Record (KHKY)
Temperature  
Mean Temperature 48 °F -  
Max Temperature 64 °F 68 °F 84 °F (1974)
Min Temperature 33 °F 46 °F 26 °F (1954)
Degree Days  
Heating Degree Days 16    
Moisture  
Dew Point 31 °F    
Average Humidity 45    
Maximum Humidity 81    
Minimum Humidity 30    
Precipitation  
Precipitation 0.00 in - - ()
Sea Level Pressure  
Sea Level Pressure 29.89 in    
Wind  
Wind Speed 5 mph (West)    
Max Wind Speed 12 mph    
Max Gust Speed 22 mph    
Visibility 10 miles    
Events      
Averages and records for this station are not official NWS values.
T = Trace of Precipitation, MM = Missing Value Source: NWS Daily Summary

Daily Weather History Graph

Daily Weather History Graph

Search for Another Location

Airport:

Trip Planner

Search our weather history database for the weather conditions in past years. The results will help you decide how hot, cold, wet, or windy it might be!

Date:

Astronomy

Nov. 02, 2012 Rise Set
Actual Time 7:47 AM EDT 6:26 PM EDT
Civil Twilight 7:20 AM EDT 6:53 PM EDT
Nautical Twilight 6:50 AM EDT 7:23 PM EDT
Astronomical Twilight 6:20 AM EDT 7:53 PM EDT
Moon 9:16 PM EDT (11/2) 11:02 AM EDT (11/2)
Length of Visible Light 11h 32m
Length of Day
10h 39m
Waning Gibbous, 87% of the Moon is Illuminated
Nov 2
Waning Gibbous
Nov 6
Last Quarter
Nov 13
New
Nov 20
First Quarter
Nov 28
Full

Hourly Weather History & Observations

Time (EDT) Temp. Windchill Dew Point Humidity Pressure Visibility Wind Dir Wind Speed Gust Speed Precip Events Conditions
12:15 AM 41.0 °F 39.0 °F 23.0 °F 49% 29.88 in 10.0 mi SSW 3.5 mph - N/A   Clear
6:55 AM 33.8 °F 30.8 °F 28.4 °F 81% 29.88 in 10.0 mi South 3.5 mph - N/A   Overcast
7:35 AM 37.4 °F - 28.4 °F 70% 29.87 in 10.0 mi Calm Calm - N/A   Overcast
7:55 AM 37.4 °F 34.9 °F 28.4 °F 70% 29.87 in 10.0 mi SSW 3.5 mph - N/A   Overcast
8:15 AM 39.2 °F 35.9 °F 28.4 °F 65% 29.88 in 10.0 mi SW 4.6 mph - N/A   Overcast
8:35 AM 41.0 °F 39.0 °F 30.2 °F 65% 29.88 in 10.0 mi SW 3.5 mph - N/A   Overcast
8:55 AM 42.8 °F - 30.2 °F 61% 29.88 in 10.0 mi Calm Calm - N/A   Overcast
9:15 AM 44.6 °F 43.1 °F 30.2 °F 57% 29.88 in 10.0 mi SW 3.5 mph - N/A   Overcast
9:35 AM 46.4 °F 44.3 °F 30.2 °F 53% 29.88 in 10.0 mi SW 4.6 mph - N/A   Scattered Clouds
9:55 AM 48.2 °F - 32.0 °F 54% 29.88 in 10.0 mi West 3.5 mph - N/A   Clear
10:15 AM 50.0 °F - 32.0 °F 50% 29.87 in 10.0 mi WSW 3.5 mph - N/A   Clear
10:35 AM 50.0 °F - 32.0 °F 50% 29.87 in 10.0 mi Calm Calm - N/A   Scattered Clouds
10:55 AM 51.8 °F - 33.8 °F 50% 29.86 in 10.0 mi Calm Calm - N/A   Mostly Cloudy
11:15 AM 57.2 °F - 32.0 °F 38% 29.85 in 10.0 mi SW 10.4 mph - N/A   Scattered Clouds
11:35 AM 59.0 °F - 32.0 °F 36% 29.85 in 10.0 mi WSW 9.2 mph - N/A   Scattered Clouds
11:55 AM 59.0 °F - 33.8 °F 39% 29.85 in 10.0 mi SW 5.8 mph - N/A   Scattered Clouds
12:15 PM 59.0 °F - 33.8 °F 39% 29.84 in 10.0 mi WSW 11.5 mph 17.3 mph N/A   Scattered Clouds
12:35 PM 59.0 °F - 33.8 °F 39% 29.84 in 10.0 mi WSW 11.5 mph 16.1 mph N/A   Scattered Clouds
12:55 PM 59.0 °F - 33.8 °F 39% 29.84 in 10.0 mi West 9.2 mph - N/A   Mostly Cloudy
1:15 PM 59.0 °F - 35.6 °F 42% 29.84 in 10.0 mi West 6.9 mph - N/A   Overcast
1:35 PM 60.8 °F - 37.4 °F 42% 29.84 in 10.0 mi West 4.6 mph - N/A   Mostly Cloudy
1:55 PM 60.8 °F - 37.4 °F 42% 29.84 in 10.0 mi West 6.9 mph - N/A   Mostly Cloudy
2:15 PM 62.6 °F - 37.4 °F 39% 29.84 in 10.0 mi WNW 8.1 mph - N/A   Scattered Clouds
2:35 PM 62.6 °F - 35.6 °F 37% 29.84 in 10.0 mi WSW 11.5 mph 16.1 mph N/A   Clear
2:55 PM 64.4 °F - 35.6 °F 34% 29.83 in 10.0 mi West 10.4 mph - N/A   Clear
3:15 PM 64.4 °F - 35.6 °F 34% 29.83 in 10.0 mi West 11.5 mph 21.9 mph N/A   Clear
3:35 PM 64.4 °F - 33.8 °F 32% 29.83 in 10.0 mi West 10.4 mph 20.7 mph N/A   Clear
3:55 PM 64.4 °F - 32.0 °F 30% 29.84 in 10.0 mi WNW 10.4 mph 17.3 mph N/A   Clear
4:15 PM 62.6 °F - 32.0 °F 32% 29.85 in 10.0 mi WNW 11.5 mph 16.1 mph N/A   Clear
4:35 PM 60.8 °F - 30.2 °F 31% 29.85 in 10.0 mi WNW 11.5 mph 16.1 mph N/A   Clear
4:55 PM 60.8 °F - 32.0 °F 34% 29.86 in 10.0 mi WNW 9.2 mph - N/A   Clear
5:15 PM 60.8 °F - 32.0 °F 34% 29.87 in 10.0 mi WNW 4.6 mph - N/A   Clear
5:35 PM 60.8 °F - 32.0 °F 34% 29.87 in 10.0 mi NW 8.1 mph - N/A   Clear
5:55 PM 59.0 °F - 32.0 °F 36% 29.88 in 10.0 mi NW 6.9 mph - N/A   Clear
6:15 PM 59.0 °F - 32.0 °F 36% 29.89 in 10.0 mi NW 5.8 mph - N/A   Clear
6:35 PM 57.2 °F - 32.0 °F 38% 29.90 in 10.0 mi NW 5.8 mph - N/A   Clear
6:55 PM 55.4 °F - 32.0 °F 41% 29.91 in 10.0 mi NW 6.9 mph - N/A   Clear
7:15 PM 55.4 °F - 30.2 °F 38% 29.92 in 10.0 mi NW 9.2 mph - N/A   Clear
7:35 PM 55.4 °F - 30.2 °F 38% 29.92 in 10.0 mi NW 8.1 mph - N/A   Clear
7:55 PM 53.6 °F - 30.2 °F 41% 29.92 in 10.0 mi NNW 5.8 mph - N/A   Clear
8:15 PM 53.6 °F - 28.4 °F 38% 29.94 in 10.0 mi NW 4.6 mph - N/A   Clear
8:35 PM 53.6 °F - 28.4 °F 38% 29.94 in 10.0 mi NW 4.6 mph - N/A   Clear
8:55 PM 51.8 °F - 28.4 °F 41% 29.94 in 10.0 mi WNW 5.8 mph - N/A   Clear
9:15 PM 51.8 °F - 28.4 °F 41% 29.94 in 10.0 mi NW 3.5 mph - N/A   Clear
9:35 PM 48.2 °F - 30.2 °F 50% 29.95 in 10.0 mi Calm Calm - N/A   Clear
9:55 PM 51.8 °F - 28.4 °F 41% 29.96 in 10.0 mi NW 4.6 mph - N/A   Clear
10:15 PM 51.8 °F - 28.4 °F 41% 29.96 in 10.0 mi NW 5.8 mph - N/A   Clear
10:35 PM 50.0 °F - 28.4 °F 43% 29.97 in 10.0 mi WNW 3.5 mph - N/A   Clear
10:55 PM 42.8 °F - 30.2 °F 61% 29.97 in 10.0 mi Calm Calm - N/A   Clear
11:15 PM 42.8 °F - 30.2 °F 61% 29.97 in 10.0 mi Calm Calm - N/A   Clear
11:35 PM 44.6 °F - 30.2 °F 57% 29.98 in 10.0 mi Calm Calm - N/A   Clear
11:55 PM 42.8 °F - 30.2 °F 61% 29.98 in 10.0 mi Calm Calm - N/A   Clear